Theta_e
299 290 286 284 285 289 291 292 292 292 294 295 294 291 289 289 288 292 293 297 296 291 289 288 289 289 290 291 292 294 294 297 295 295 299 301 302 302 304 305 306 306 306 308 311 312 313 313 312 312 312 311 311 310 312 311 310 311 313 315 314 313 313 314 314 312 307 304 306 307 307 308 311 314 314 315 314 316 317 317 319 319 319 318 319 320
299 289 287 290 291 292 293 297 296 296 295 293 290 289 287 291 288 292 295 298 297 292 288 290 290 290 292 293 294 294 296 294 294 293 296 300 301 302 304 305 305 306 307 308 310 311 312 311 311 312 311 312 309 310 311 311 310 311 314 314 314 312 314 313 314 314 310 306 304 305 307 309 313 313 312 312 313 315 318 316 316 316 315 315 316 319
290 286 291 293 295 296 299 299 296 295 293 291 291 288 287 286 290 292 295 298 297 292 288 291 291 291 293 295 295 294 295 294 295 295 296 299 300 301 302 304 305 304 304 307 310 310 311 311 311 311 311 310 310 310 311 311 311 312 314 314 314 313 314 313 314 310 309 310 309 308 308 310 311 312 312 312 316 318 316 314 314 314 314 314 315 315
287 289 294 296 298 298 297 297 294 292 291 288 287 284 285 287 287 283 290 296 296 294 291 291 290 290 293 295 295 296 296 296 297 297 298 299 300 300 301 303 304 303 303 306 308 308 310 310 310 310 310 309 309 310 310 311 311 314 315 313 314 314 314 315 315 312 309 311 310 310 311 311 311 311 317 313 314 313 314 313 314 313 312 314 313 314
289 293 298 297 298 298 295 295 292 289 289 290 291 289 287 290 290 287 288 293 293 293 295 290 286 285 287 291 292 296 296 298 297 298 298 297 299 301 302 301 304 303 304 306 308 308 309 309 309 309 310 309 309 310 310 311 312 315 314 314 315 314 314 313 316 312 314 315 312 313 313 314 314 313 309 309 309 311 315 313 311 313 312 313 313 313
291 295 299 299 296 296 294 291 291 288 287 285 289 292 292 291 291 292 292 291 282 285 288 293 279 277 283 288 291 294 293 294 294 295 296 298 297 297 298 299 301 303 305 307 308 308 309 310 309 309 309 308 309 310 311 312 313 315 314 315 315 313 313 313 313 313 313 312 311 310 309 308 308 308 306 305 307 309 309 309 311 313 312 314 313 312
291 296 298 297 296 294 294 291 293 292 285 286 288 293 293 293 292 292 290 286 281 281 286 292 281 275 282 287 290 292 292 294 294 294 296 297 296 297 299 300 301 301 303 306 309 309 309 310 309 309 309 309 309 310 312 312 313 316 315 315 315 314 312 314 312 313 314 310 310 310 310 309 310 309 306 305 306 309 309 310 310 311 311 313 312 313
297 296 297 296 295 293 290 290 293 292 286 284 290 294 295 293 292 291 290 288 282 288 287 290 285 279 278 285 291 291 291 292 292 292 294 296 296 297 299 300 301 301 304 305 308 309 310 310 309 309 309 309 310 310 312 312 313 315 316 316 315 314 313 313 312 312 313 311 310 310 309 311 309 308 307 308 309 308 311 309 310 311 311 313 313 313
294 294 294 294 292 289 288 290 293 293 289 287 293 295 294 293 292 291 286 283 285 284 281 280 289 282 276 284 290 292 289 291 292 293 293 295 296 297 298 299 300 301 304 306 308 309 309 310 310 311 310 311 311 311 312 313 314 316 317 317 315 314 312 312 313 312 312 313 312 312 312 312 311 308 310 310 312 311 311 308 310 311 311 309 312 313
295 297 297 295 292 288 291 293 293 295 291 292 295 298 295 294 293 290 285 285 282 279 276 279 285 280 279 282 286 288 289 289 291 294 295 295 297 297 298 298 300 300 302 305 308 309 310 311 311 312 312 312 312 312 314 315 316 316 318 317 315 314 312 312 312 313 312 313 314 311 310 311 310 310 309 309 309 309 308 308 308 308 309 309 309 310
293 301 304 297 292 292 293 293 294 294 295 297 295 294 288 287 285 285 282 282 279 275 275 283 285 284 278 280 285 286 289 291 292 293 294 295 297 298 298 299 299 299 300 303 306 308 310 311 312 313 312 313 313 313 314 315 316 316 318 317 315 314 312 312 312 312 312 313 313 312 309 310 310 309 310 307 306 307 307 308 307 307 307 309 308 309
292 293 296 294 299 296 295 294 295 294 295 295 291 287 283 283 282 278 278 279 276 268 277 283 285 285 277 279 283 288 291 292 292 292 295 294 296 297 297 299 299 300 300 303 306 307 309 310 310 312 312 312 313 314 314 315 316 315 317 317 315 314 311 311 312 311 312 313 312 311 309 309 310 310 310 308 307 308 308 308 308 307 308 308 310 309
286 288 291 294 300 295 293 291 287 287 288 287 285 284 280 275 273 271 275 273 273 273 280 283 286 282 279 284 289 291 292 294 296 297 297 295 295 296 298 299 300 301 300 302 306 306 308 309 310 311 312 312 313 314 314 315 315 315 316 316 315 314 311 311 312 311 311 313 311 310 309 309 310 310 310 309 308 308 307 308 307 306 308 306 308 308
283 288 292 293 294 296 291 287 281 285 283 286 285 279 277 274 270 267 268 272 276 279 285 284 287 280 282 286 289 289 292 294 297 298 298 296 297 298 298 298 298 300 301 302 306 307 307 308 310 311 312 313 314 314 315 315 315 315 316 316 315 314 312 311 311 311 310 312 312 310 309 310 309 310 309 309 308 309 307 309 309 308 307 306 307 308
276 279 285 289 286 294 291 290 287 283 283 285 286 286 281 276 275 269 273 271 274 278 281 287 282 274 278 284 291 293 294 296 297 298 298 298 297 298 298 299 297 298 299 302 305 307 307 308 310 311 312 313 314 315 315 315 315 315 315 316 315 314 313 311 311 310 310 311 311 310 310 310 310 309 309 309 308 310 308 308 309 308 307 306 307 307
285 280 286 292 294 294 291 292 292 289 287 286 289 287 282 280 281 278 276 277 277 276 276 278 279 278 282 288 293 295 296 298 299 299 299 298 298 299 299 298 298 299 300 301 304 307 307 308 309 310 311 312 314 314 315 315 315 315 315 316 316 315 313 312 311 310 310 310 310 310 310 310 311 311 310 309 310 310 310 309 308 308 307 306 306 305
283 281 289 292 293 292 291 295 293 292 281 288 288 284 287 290 287 281 278 282 275 276 274 274 281 282 286 286 288 292 295 296 297 297 298 298 299 299 298 298 298 297 297 300 302 306 307 308 309 310 310 311 312 314 315 315 316 316 316 315 315 315 314 313 312 311 310 310 309 310 310 310 311 310 310 309 309 309 309 309 308 308 307 306 307 308
280 280 287 289 289 293 295 294 294 293 291 286 283 285 291 294 293 284 276 274 274 271 272 277 275 276 279 276 287 291 292 294 295 296 297 297 298 297 298 298 300 300 299 300 302 304 306 308 309 309 310 311 311 313 315 316 316 316 316 316 315 315 313 313 312 311 310 309 309 310 310 310 311 311 310 310 309 309 309 307 308 307 307 307 308 309
286 279 283 290 291 292 294 293 290 292 293 289 287 294 289 279 281 283 279 271 270 268 267 271 276 276 279 279 284 289 289 291 293 294 295 295 295 295 296 297 298 299 300 300 300 301 303 305 308 309 309 311 311 312 315 316 316 316 316 316 316 316 315 314 313 312 311 311 311 311 311 310 310 311 310 310 309 309 309 308 307 307 307 306 306 309
285 279 280 288 290 291 291 287 282 285 292 294 292 287 288 284 279 277 279 278 276 268 268 270 276 273 282 280 288 288 289 290 292 293 293 294 295 295 295 296 297 297 299 300 300 301 303 305 307 307 308 309 310 311 313 315 316 316 316 316 316 316 315 313 313 313 311 311 311 311 311 310 311 310 310 309 308 308 308 308 307 307 305 306 308 304
284 286 276 281 289 290 283 286 284 285 283 285 285 282 283 283 285 282 283 279 276 268 266 267 269 274 279 285 289 290 291 291 291 292 293 293 294 294 294 295 295 296 298 300 301 302 304 305 306 306 306 309 310 312 313 314 316 316 316 316 316 316 315 313 313 313 313 312 311 311 310 310 309 309 309 308 308 308 307 307 308 307 306 305 305 304
282 279 280 279 282 281 283 287 291 290 289 286 284 282 283 281 280 277 276 281 281 277 272 270 272 277 283 293 293 292 292 292 292 292 292 292 292 292 293 293 293 294 296 297 298 301 303 304 306 306 307 309 309 310 311 313 314 315 316 317 317 317 316 314 313 313 313 313 312 311 310 310 309 309 308 307 307 307 307 307 306 306 305 305 304 304
287 283 281 279 280 282 286 290 291 291 290 288 287 283 286 282 280 277 273 274 281 279 281 278 273 278 288 291 292 293 292 291 291 291 291 292 293 293 293 294 294 293 294 296 296 298 301 302 303 307 308 308 310 311 312 312 316 317 317 318 318 317 316 316 315 314 314 313 312 311 311 310 309 308 307 307 306 306 306 306 305 306 305 304 303 303
304 278 277 279 282 284 286 289 289 289 289 287 284 286 284 281 284 281 278 277 277 276 278 275 273 278 284 291 291 292 291 290 290 290 291 292 293 293 293 293 293 293 294 294 295 295 296 300 301 307 308 308 308 309 311 313 315 317 318 319 319 317 317 317 316 315 314 313 312 311 310 309 308 307 307 306 306 306 306 306 305 306 304 304 302 303
282 281 280 276 272 276 277 279 281 284 284 281 282 282 286 284 284 284 283 281 279 278 279 276 272 276 283 290 291 290 290 290 290 291 291 291 292 293 293 293 292 292 293 293 294 295 295 296 299 301 305 306 307 308 309 312 314 316 318 319 319 319 318 318 317 315 314 313 312 311 310 309 308 307 306 306 305 305 305 305 305 305 304 303 302 302
283 281 280 274 271 269 266 267 270 272 277 281 284 283 285 284 282 280 276 275 273 276 280 275 273 279 284 287 287 288 289 289 290 291 292 292 291 291 292 292 293 293 292 293 293 295 294 294 295 297 298 301 303 306 308 308 310 312 313 317 317 317 316 317 316 315 314 313 312 310 309 308 307 307 306 306 305 305 305 305 304 304 303 303 303 300
282 283 280 277 275 274 276 277 280 285 281 279 282 283 283 284 283 281 276 275 273 272 276 277 280 280 284 285 285 286 287 287 288 289 290 290 290 290 290 291 292 292 293 294 294 293 294 295 295 297 299 301 301 302 306 308 309 311 314 316 317 318 318 318 316 314 313 312 311 310 309 308 308 307 306 306 305 305 305 305 304 304 303 303 302 300
281 278 281 282 281 281 282 283 285 286 282 283 282 283 284 282 283 282 277 277 276 276 274 278 279 280 282 282 284 285 287 286 287 288 288 288 289 289 289 290 295 294 294 294 295 294 294 294 295 296 298 300 303 305 307 308 309 310 312 315 317 317 317 317 316 314 313 312 311 310 309 309 308 307 306 306 305 305 305 304 303 303 302 301 299 298
281 278 280 282 281 283 283 284 285 284 284 283 283 282 281 282 281 278 275 281 280 275 276 278 278 278 281 282 284 285 286 288 288 289 290 289 288 290 290 291 291 292 292 293 294 294 294 294 294 296 297 299 301 303 304 307 308 308 310 313 315 316 316 316 315 314 312 311 310 310 309 308 307 306 306 306 305 304 304 303 303 302 301 300 298 299
282 277 280 282 281 282 282 282 283 283 282 283 282 282 282 281 280 280 280 280 281 279 280 281 278 278 282 282 285 286 287 287 287 288 288 289 290 291 290 290 290 291 291 292 293 293 294 294 294 294 295 296 299 300 302 302 304 306 306 308 309 310 312 312 313 313 311 310 308 306 306 307 306 306 305 305 304 304 303 302 301 300 299 298 297 297
283 277 285 283 278 278 281 283 283 282 282 281 282 282 281 280 280 280 279 279 281 278 279 278 276 277 281 284 285 286 286 287 288 289 289 289 291 291 291 290 290 291 291 292 293 294 294 295 296 296 295 296 298 299 300 301 302 304 304 306 307 308 309 310 309 307 308 308 308 308 306 305 305 305 305 304 304 302 302 301 300 299 297 296 296 296
285 278 281 279 273 272 278 282 282 281 279 278 278 280 279 279 276 278 278 278 278 276 277 275 275 276 280 284 285 286 287 288 288 288 289 290 291 291 290 291 291 291 292 293 294 295 296 296 297 297 297 297 297 300 300 301 302 302 304 304 307 308 310 309 309 308 308 306 306 307 307 307 306 305 304 304 303 302 301 300 299 297 295 295 295 295
281 278 276 274 274 269 278 281 280 277 278 277 274 274 280 281 281 281 280 282 282 281 276 275 276 279 283 286 286 287 286 288 288 290 290 290 290 291 290 290 290 290 292 294 295 296 295 296 297 298 298 299 299 299 300 302 301 301 303 304 306 306 307 309 310 309 308 308 307 307 307 306 306 304 303 303 302 301 300 299 297 295 294 294 294 294
282 281 277 278 271 269 278 279 279 275 270 271 275 279 282 279 279 279 277 279 281 281 277 277 280 282 284 285 286 286 286 288 290 291 292 291 290 290 290 290 291 292 292 293 294 295 295 296 298 299 299 300 301 302 301 301 302 303 304 305 306 307 307 308 307 307 307 307 308 308 307 306 305 303 303 302 301 300 299 297 297 295 294 294 293 291
281 280 277 277 274 270 272 274 270 267 272 278 282 285 285 285 284 283 282 282 285 284 284 283 285 285 287 287 288 288 288 289 290 291 292 292 292 290 291 291 291 292 293 293 293 295 295 296 297 298 299 301 302 303 302 302 302 302 303 304 306 306 307 308 307 307 306 306 306 306 305 304 304 303 302 301 301 299 298 297 293 293 292 293 291 291
280 279 276 276 274 271 271 270 264 271 278 282 282 284 286 286 283 284 280 282 284 285 285 283 285 286 286 287 287 288 288 289 289 291 291 292 292 292 291 291 292 293 293 294 294 294 296 297 298 299 300 302 302 302 303 303 304 303 303 305 306 306 306 307 306 306 304 304 304 304 304 303 302 301 300 300 299 298 296 294 293 293 293 291 290 290
284 281 278 275 275 272 268 269 273 277 279 280 279 280 282 281 280 280 275 276 284 285 284 284 285 285 285 286 287 287 287 286 283 286 291 292 293 293 292 292 293 293 293 294 295 296 298 298 298 299 300 300 301 302 302 303 304 304 303 304 306 307 306 306 305 304 304 303 304 304 303 302 301 300 298 297 296 295 294 293 292 292 292 291 290 289
285 280 278 276 273 277 274 268 267 268 269 271 280 284 288 286 284 281 280 276 283 285 286 285 285 285 285 285 286 285 286 284 282 281 287 290 291 292 293 293 294 294 294 295 296 297 298 298 298 299 300 300 301 301 303 304 304 304 303 304 305 306 305 305 304 304 304 303 303 303 302 302 301 300 298 296 295 293 293 292 292 292 292 291 289 288
284 285 280 279 274 274 272 270 268 267 269 274 279 285 287 288 286 280 277 275 280 285 285 286 285 285 285 285 286 284 284 279 281 284 287 288 290 292 292 293 294 294 295 296 297 297 298 298 298 300 300 300 300 302 302 303 304 304 303 303 304 306 305 304 304 304 304 303 302 302 302 301 300 298 296 295 294 294 293 292 293 292 290 289 289 288
281 279 279 276 273 273 271 271 271 272 271 282 285 286 288 286 283 279 270 268 278 282 284 286 285 285 284 284 285 285 283 279 282 286 289 290 291 292 292 293 294 294 295 296 297 297 298 298 299 299 299 299 299 302 302 302 303 303 303 303 304 305 304 304 304 304 303 302 301 301 301 300 299 298 297 295 293 293 293 292 291 290 290 288 288 288
275 277 279 275 276 277 277 273 273 274 282 287 286 288 289 289 283 272 269 274 281 283 284 285 285 285 285 285 285 283 283 287 289 291 291 291 292 293 293 294 294 294 294 296 297 297 298 298 299 299 298 299 301 303 303 302 301 301 302 303 303 303 303 303 303 303 301 300 300 300 300 300 298 296 295 295 294 294 293 291 290 289 288 288 286 286
274 275 277 276 275 275 275 274 275 275 281 288 288 290 289 283 272 270 278 285 284 283 284 285 285 285 285 286 284 285 288 289 291 291 291 292 291 292 293 293 293 294 295 296 297 297 297 298 298 297 297 299 301 303 302 302 301 301 300 301 301 301 302 302 300 300 300 300 300 299 298 297 296 296 295 294 293 292 290 289 289 289 288 286 286 285
275 273 271 273 274 275 273 271 271 268 280 289 288 285 286 277 276 283 285 284 285 286 286 285 286 286 286 287 287 288 288 289 289 290 291 291 291 292 292 292 292 292 293 294 295 297 298 297 298 298 300 302 304 304 303 302 300 299 298 297 297 298 299 300 300 300 299 299 298 297 296 296 296 296 296 294 293 292 290 288 288 287 286 286 285 285
281 273 272 273 277 270 269 268 271 277 282 288 287 280 281 285 287 287 285 285 284 285 286 286 285 287 286 287 288 288 288 288 288 289 290 291 291 291 291 291 292 293 293 295 296 297 297 297 299 300 301 303 304 304 304 303 300 297 295 295 298 299 299 300 300 300 299 298 297 297 296 297 296 296 295 294 293 291 289 286 286 287 288 287 287 285
281 277 276 273 277 274 271 272 278 281 284 287 289 287 288 289 290 289 288 286 285 286 286 286 288 288 287 288 288 288 287 288 288 290 289 290 290 290 290 291 292 293 294 295 296 296 297 298 300 301 302 302 303 303 303 301 298 296 295 297 298 298 299 299 299 298 298 298 297 296 296 296 296 296 294 294 292 290 287 285 286 287 285 285 284 284
282 283 283 281 278 281 281 282 283 282 282 283 286 289 288 289 290 289 289 287 286 288 288 288 289 289 288 288 287 288 288 289 289 289 290 290 289 290 291 292 293 294 295 296 296 297 298 300 301 301 300 301 303 304 302 301 299 297 297 299 299 299 298 298 298 297 297 296 295 295 296 295 294 294 292 290 288 288 287 287 287 287 287 286 285 284
280 281 278 275 277 275 270 277 282 283 284 283 284 287 289 290 289 290 289 288 288 289 289 289 289 288 288 288 288 289 289 290 290 290 289 288 289 290 290 291 293 294 296 296 297 297 298 299 299 299 299 300 302 303 301 300 300 299 299 299 299 299 299 298 297 295 294 293 293 293 293 291 290 289 289 288 287 288 289 288 286 287 286 284 283 284
276 282 279 278 276 273 273 279 282 284 284 285 285 285 286 287 288 288 289 289 289 289 289 290 289 288 287 288 289 288 289 290 289 289 289 289 290 290 291 292 293 295 297 298 298 297 297 298 298 298 299 299 300 301 300 299 299 299 299 299 300 299 298 296 295 293 292 292 292 291 291 291 288 289 288 288 288 286 286 286 285 284 285 283 283 282
280 282 273 277 277 279 281 282 282 282 283 283 283 284 285 285 286 286 287 287 288 288 289 289 289 289 288 289 289 288 288 289 289 289 289 289 289 290 291 292 294 296 297 298 299 298 297 297 298 298 299 300 300 300 299 299 299 300 300 299 299 297 296 294 292 292 292 291 291 290 290 290 290 288 288 288 286 286 284 283 285 285 283 281 282 283
280 277 281 278 274 272 273 278 279 276 276 281 283 284 285 286 286 286 286 286 287 288 289 288 289 289 289 289 289 288 287 288 288 287 288 289 289 291 292 293 295 296 298 299 299 299 299 299 299 299 299 299 299 300 299 299 299 300 301 300 298 296 293 292 292 292 292 291 291 290 289 289 288 289 288 287 286 285 286 286 286 285 285 281 287 287
279 280 279 274 272 274 279 281 282 282 282 283 284 285 286 287 286 286 286 286 287 288 289 288 288 288 289 290 289 288 288 288 289 286 288 288 289 291 293 295 296 297 298 299 298 297 297 298 298 298 299 298 299 299 299 299 300 299 300 299 298 295 293 293 292 291 291 291 291 289 289 289 289 289 288 287 286 285 284 286 286 287 288 287 288 288
Wind_Speed
2 1 4 5 7 7 6 5 6 6 6 2 0 2 2 1 4 4 3 4 4 4 1 3 5 5 5 4 4 4 3 1 6 9 11 11 12 12 11 13 14 14 16 12 13 14 14 13 11 9 9 9 8 8 9 9 8 9 10 8 8 7 4 5 4 3 3 4 3 3 3 3 1 3 3 3 3 4 3 4 4 4 4 5 4 3
3 2 6 9 9 7 6 4 4 3 2 3 2 2 5 0 2 3 2 4 5 3 2 4 2 4 4 5 5 4 1 4 5 5 9 13 13 13 15 14 15 15 7 8 7 6 6 9 9 9 9 11 12 9 9 11 11 8 7 8 9 6 5 5 5 4 3 2 6 5 5 3 2 3 3 2 2 4 3 4 4 4 4 4 4 4
1 5 10 11 8 2 1 1 2 2 2 3 0 0 3 3 2 4 4 6 4 5 2 1 2 4 5 5 3 3 3 3 5 7 6 14 12 11 12 13 12 8 8 9 11 9 11 11 10 10 10 11 13 13 12 11 9 7 7 7 6 6 6 5 4 4 3 2 2 5 3 5 1 1 0 2 1 2 4 3 3 3 4 4 4 4
4 7 12 10 2 4 0 1 3 3 3 2 2 1 2 3 2 2 4 4 5 3 1 2 4 6 6 5 4 8 6 5 5 5 6 5 13 13 12 14 15 11 10 13 14 14 13 14 12 10 10 11 9 10 8 8 10 8 8 6 6 6 5 5 4 4 3 4 4 4 6 2 3 3 1 3 2 3 3 3 2 2 4 4 3 4
9 11 4 2 4 7 5 1 2 1 1 1 1 1 1 3 2 4 3 3 4 2 1 3 5 7 3 3 6 6 1 2 4 5 7 4 7 9 9 8 11 14 14 15 13 11 10 11 12 15 14 10 11 11 11 11 10 9 10 8 8 7 6 5 5 6 6 6 5 5 4 4 5 4 3 3 2 2 2 1 2 1 2 3 3 4
9 11 3 0 5 5 5 4 4 7 1 1 3 4 5 5 5 3 2 1 2 2 2 1 2 3 4 5 5 9 5 4 2 4 9 14 6 5 5 9 9 10 14 18 18 18 18 18 15 9 9 11 11 12 12 11 12 10 9 8 6 6 5 6 7 7 7 7 8 6 6 4 3 3 3 4 5 2 3 3 1 0 1 1 1 3
8 5 5 7 8 6 5 5 2 4 2 1 4 5 5 4 3 1 1 3 1 2 3 1 3 5 5 5 5 6 4 8 5 4 11 12 6 6 9 11 11 11 9 11 16 15 15 14 13 11 12 12 13 12 10 10 10 9 9 8 7 7 5 6 7 6 6 6 6 7 7 6 7 7 4 2 2 5 2 1 3 2 1 0 1 0
1 1 2 2 2 2 2 1 2 5 6 2 3 3 3 2 1 1 3 5 3 1 2 2 3 3 4 7 6 4 4 7 9 7 9 10 7 8 10 12 10 10 12 14 15 17 19 18 17 16 15 13 14 12 9 10 9 10 11 10 9 7 6 6 7 6 7 8 6 5 5 5 6 6 6 4 4 3 3 3 3 1 1 1 0 0
0 3 2 4 2 2 2 3 2 4 3 3 3 6 4 2 4 3 4 4 1 1 5 5 1 1 2 6 5 2 4 7 9 10 8 10 10 10 10 9 9 10 14 17 16 18 18 18 18 16 15 14 12 10 13 13 11 10 10 10 8 8 7 7 8 7 5 7 7 7 6 4 3 4 4 3 3 3 3 4 1 1 1 1 1 1
2 4 6 5 4 4 4 4 4 8 1 4 4 1 2 2 2 2 2 1 2 3 5 5 1 2 6 6 5 2 1 6 8 10 11 11 13 12 11 8 10 8 8 12 19 20 19 18 16 16 15 13 13 12 11 9 9 9 9 10 10 9 8 8 8 8 7 6 6 6 5 6 5 3 3 3 4 4 3 4 2 1 1 2 0 0
6 6 5 4 4 6 3 5 5 5 7 1 3 2 3 6 5 3 4 3 3 1 5 7 2 2 5 7 6 3 3 4 7 9 8 7 9 11 10 11 10 9 10 12 13 16 18 17 16 12 14 15 10 8 9 8 9 9 10 11 12 11 9 9 10 9 8 7 7 7 7 7 7 6 6 4 3 3 3 4 4 2 3 1 2 1
5 1 1 2 5 2 4 2 1 2 1 2 1 2 2 4 7 3 3 4 1 4 7 4 2 4 2 7 7 7 6 5 5 9 12 5 10 11 8 9 10 10 8 10 13 15 16 12 9 10 12 12 13 10 10 10 10 10 11 11 12 10 10 9 10 10 9 8 7 6 7 8 8 9 7 8 7 6 6 5 5 3 1 2 3 2
2 3 2 3 2 9 1 1 7 2 3 5 5 6 5 3 4 2 3 3 2 5 5 1 3 2 4 10 11 8 8 8 5 7 12 7 6 7 10 13 12 11 6 10 11 13 12 14 14 13 13 12 12 14 15 15 13 12 12 13 13 12 11 11 10 11 10 8 8 8 8 7 7 8 8 8 7 6 6 6 4 4 5 2 2 4
6 4 3 3 3 1 5 3 1 3 1 5 4 3 4 1 1 2 4 1 3 6 6 3 3 2 4 9 6 6 8 6 8 7 6 5 8 12 11 9 9 9 9 10 11 13 14 14 15 17 16 17 16 16 17 16 14 12 12 13 14 15 13 12 11 11 10 9 9 8 8 8 7 8 8 7 8 7 6 6 6 6 6 6 5 4
1 2 4 1 1 2 2 7 9 6 4 7 4 8 7 6 3 3 2 3 6 8 3 3 0 4 1 4 2 5 4 6 5 4 9 4 3 6 4 1 1 4 5 8 10 13 15 16 17 16 17 17 17 18 16 14 14 13 13 13 14 12 11 12 13 11 12 10 8 8 7 7 7 8 7 7 7 7 6 5 6 6 4 5 4 5
7 5 5 3 2 1 1 2 2 2 1 2 3 7 5 4 6 4 6 4 3 1 2 1 3 5 5 4 7 6 6 12 17 16 12 13 11 10 11 6 0 3 5 5 9 11 14 17 16 15 15 16 16 17 14 14 13 13 14 14 15 14 13 12 12 12 12 10 8 7 7 8 8 7 6 6 5 6 7 7 7 6 5 5 3 3
2 2 2 6 3 2 2 6 3 2 2 2 3 2 8 3 6 1 2 0 4 4 7 2 4 6 6 4 3 7 11 9 10 11 12 14 14 11 11 12 11 9 6 1 3 8 12 11 13 15 16 14 13 12 14 15 16 17 15 13 14 12 11 12 12 12 11 10 9 8 8 7 7 8 8 8 7 7 6 7 6 6 6 4 4 4
4 4 6 4 5 1 2 1 2 3 4 4 1 5 1 3 4 2 4 2 0 4 6 1 4 4 2 4 3 9 10 11 11 10 11 10 14 12 9 12 12 11 9 6 4 2 6 10 14 13 12 14 15 16 16 16 15 15 15 15 15 13 13 12 11 11 10 10 10 9 9 8 9 9 8 7 8 7 7 5 5 4 5 6 5 4
3 3 1 0 1 4 4 5 7 3 6 4 3 3 3 2 4 3 2 3 1 2 3 2 2 4 4 5 5 6 6 6 9 10 12 12 12 10 10 11 12 12 12 12 7 5 3 4 7 11 13 14 13 13 14 15 14 12 11 13 15 16 15 14 11 9 9 10 9 9 10 10 8 7 7 7 6 6 7 6 6 6 6 4 4 4
3 3 5 2 3 3 3 3 1 6 9 2 2 6 1 2 4 3 7 4 5 4 1 5 2 4 3 3 2 5 5 5 7 9 7 8 9 10 10 11 11 10 5 3 6 6 4 2 4 5 6 9 10 10 10 11 11 13 13 13 12 11 9 9 11 11 11 11 10 9 8 7 8 8 8 7 7 7 7 7 7 6 5 6 4 4
0 1 3 3 3 3 3 1 2 1 3 8 9 5 5 1 2 2 1 2 4 3 3 2 2 3 4 7 5 5 6 4 5 7 5 5 7 7 7 8 9 9 9 9 8 8 7 3 2 1 5 6 4 6 9 10 13 13 10 11 12 12 11 12 12 11 11 10 11 10 11 10 8 9 7 7 7 7 7 6 6 7 6 4 4 5
2 2 3 3 4 2 5 3 1 1 1 2 2 5 5 3 5 3 7 2 1 3 3 3 8 6 7 3 5 6 6 6 5 6 5 4 4 5 6 7 7 9 8 7 7 7 9 9 3 2 3 2 2 1 2 4 5 6 10 11 11 10 11 12 12 12 12 11 11 11 11 10 8 8 7 7 7 7 7 7 6 6 5 5 5 5
3 2 2 2 3 5 5 8 5 2 2 3 4 3 0 1 4 4 3 4 1 3 4 4 1 8 5 3 5 8 6 6 5 6 5 3 3 4 4 5 6 5 6 7 6 5 5 5 6 2 4 5 5 6 5 5 7 8 8 9 9 12 13 13 14 13 12 12 11 12 10 9 8 8 8 8 7 7 7 6 6 5 6 5 4 4
3 1 1 3 5 5 7 5 4 6 3 3 3 2 4 2 0 0 3 5 4 1 0 1 2 7 3 2 5 7 5 4 3 5 4 3 1 2 4 6 7 9 9 9 9 7 3 4 4 1 1 1 0 1 4 5 5 6 7 8 9 12 14 13 12 12 12 11 12 11 10 10 9 9 8 8 7 8 6 6 6 5 6 5 4 5
1 2 3 2 3 6 7 6 4 5 5 2 1 2 2 2 3 1 1 1 1 5 7 6 8 4 2 3 2 4 3 5 3 1 3 4 3 1 1 2 4 5 7 9 10 10 10 8 8 6 2 3 3 6 5 5 6 7 9 11 12 12 11 11 10 11 12 12 12 11 12 11 10 10 9 9 7 7 7 7 6 5 5 4 4 4
2 3 3 2 5 5 3 1 3 2 4 3 1 1 0 3 3 6 3 3 1 3 3 3 5 7 7 4 8 9 7 7 4 3 3 3 3 5 6 4 3 4 4 5 7 9 9 6 4 4 5 5 4 4 6 8 7 6 5 7 6 6 5 6 7 10 11 11 11 12 13 12 10 11 11 9 8 8 7 7 6 5 4 5 5 4
0 1 2 5 6 7 8 6 5 1 3 5 6 4 5 2 1 3 3 1 4 3 2 6 3 7 12 5 5 6 6 5 6 7 5 5 3 3 5 6 5 4 5 6 5 5 6 8 6 2 2 2 4 5 4 7 7 7 9 10 9 10 12 13 12 11 11 12 12 12 12 12 12 11 10 9 8 7 6 6 6 5 5 4 5 4
2 1 3 4 6 7 7 6 6 3 6 8 8 15 8 3 1 2 4 8 4 1 9 4 4 4 8 3 3 4 3 2 3 3 4 4 4 6 3 4 8 9 8 6 6 6 5 5 7 8 5 2 1 3 5 7 9 10 12 13 13 12 11 10 11 11 11 11 12 12 13 12 11 11 10 8 8 7 7 6 5 5 4 4 4 4
1 1 5 1 4 5 4 5 5 4 6 7 9 8 9 3 4 4 4 5 3 4 8 6 3 4 8 2 4 4 5 2 2 3 3 2 3 4 5 6 5 5 6 7 8 7 6 6 6 8 9 9 8 7 6 3 2 3 6 8 9 11 13 12 13 14 13 12 13 13 12 9 9 8 9 9 8 8 7 6 6 5 5 4 4 4
1 3 5 3 3 2 4 5 6 8 6 8 8 7 5 3 5 5 4 3 6 6 8 9 4 10 10 4 5 5 5 3 3 3 6 6 3 3 4 5 5 5 5 6 6 6 6 8 7 6 6 9 9 8 7 6 5 1 0 1 3 5 6 4 10 12 11 10 5 1 2 6 7 8 8 8 9 8 7 6 6 5 5 4 5 4
3 4 4 1 1 3 3 7 6 8 6 9 8 2 1 3 4 5 4 5 3 4 5 6 6 8 5 5 3 1 3 1 4 5 4 3 4 4 4 4 4 5 5 5 5 6 6 6 6 6 6 6 8 8 6 7 8 5 3 3 3 4 4 5 6 3 4 10 10 9 6 3 3 5 7 6 6 6 6 6 6 5 4 4 4 4
4 4 3 2 3 4 4 7 5 4 6 6 3 1 2 3 6 4 4 4 2 5 5 1 4 6 4 5 1 2 3 5 4 4 5 4 3 3 5 5 5 6 6 6 5 6 6 6 7 9 8 5 4 6 7 8 7 6 6 4 4 6 7 8 6 1 6 4 4 10 11 10 9 8 7 6 7 7 6 6 5 5 4 4 3 2
3 0 1 1 2 3 6 2 2 5 9 13 7 5 9 9 7 3 2 1 4 3 3 5 8 3 1 2 4 4 4 3 4 3 3 4 4 4 4 4 4 4 5 5 6 5 5 6 7 7 10 11 8 6 7 8 8 8 8 7 8 4 4 8 12 13 13 10 7 7 8 9 10 9 8 7 6 6 6 6 5 4 4 4 4 4
1 3 3 2 2 2 2 5 4 6 10 8 3 5 6 2 1 2 2 2 3 3 2 5 3 2 0 2 4 3 4 2 0 2 3 4 4 4 4 3 4 3 4 5 5 4 4 5 5 6 7 8 9 7 6 7 9 10 10 9 5 7 9 9 8 10 12 11 12 13 11 11 11 10 10 9 8 7 6 6 6 5 5 4 3 3
6 3 4 3 1 4 1 2 2 7 12 4 1 2 3 3 4 3 3 4 2 2 2 3 0 1 0 1 1 0 1 3 2 3 6 4 0 1 1 4 4 5 6 6 7 6 5 5 6 7 8 9 10 10 10 11 8 7 9 7 7 8 10 11 13 13 13 14 12 10 9 9 9 9 9 9 8 7 6 6 4 5 3 4 5 5
6 8 3 2 2 1 1 3 2 14 2 2 5 7 5 1 1 2 3 1 4 2 2 5 4 3 2 1 2 2 3 4 3 4 4 1 3 1 2 4 5 5 7 7 7 6 6 6 7 7 9 8 10 11 10 11 11 9 10 8 9 9 10 12 12 11 9 9 9 10 10 8 7 7 6 7 6 6 5 4 5 6 5 4 4 4
11 3 3 6 2 6 4 7 12 6 10 7 5 5 6 7 2 5 6 4 2 1 3 4 2 2 2 3 3 3 3 1 2 1 2 1 0 1 4 6 6 7 7 7 6 7 6 7 6 7 7 8 10 11 12 12 11 11 10 8 9 10 10 11 11 11 13 12 11 12 11 10 9 6 4 4 4 4 4 5 5 6 5 6 5 5
7 8 5 5 4 6 7 5 3 3 7 2 3 6 6 1 4 4 4 2 1 1 1 3 0 1 3 3 4 5 5 9 10 4 4 4 3 4 4 5 6 7 7 7 6 6 6 6 6 8 8 10 11 11 10 11 12 12 11 11 10 10 11 12 13 14 15 15 14 14 13 12 11 9 6 5 5 5 4 4 4 5 5 7 6 4
4 9 5 11 3 3 2 4 4 4 6 2 8 8 10 7 5 2 3 2 2 1 2 0 1 2 2 2 4 4 7 6 9 8 6 4 5 4 6 7 6 7 7 7 7 8 8 7 8 10 10 10 12 12 9 10 12 12 13 12 11 11 12 13 13 13 13 13 13 13 14 12 11 9 9 7 6 8 7 7 6 5 5 6 5 5
3 0 5 2 4 2 3 3 6 1 2 4 6 4 7 7 2 5 1 3 2 4 4 0 3 2 4 3 2 0 1 7 9 9 4 4 5 5 4 8 9 8 8 7 6 6 8 8 9 11 10 10 11 11 10 8 9 12 13 13 11 12 13 14 14 11 12 12 12 11 12 11 11 10 10 9 7 5 6 5 6 5 5 5 6 6
3 4 3 7 7 9 7 4 2 3 1 1 3 6 5 6 3 3 4 2 3 4 4 3 3 3 3 4 1 4 6 8 9 10 7 5 7 8 5 5 7 6 8 9 10 9 8 9 9 11 10 8 9 9 8 6 7 11 12 13 12 13 12 7 8 11 12 12 13 12 13 11 12 12 10 10 9 8 7 6 6 6 5 5 3 3
3 0 3 3 1 3 3 5 6 0 2 2 5 2 2 2 1 2 2 2 4 4 4 4 3 4 4 4 4 6 7 7 7 8 9 8 6 8 8 8 7 8 8 8 9 8 9 10 8 8 8 7 8 8 8 7 7 10 10 10 12 10 9 9 7 10 14 13 12 11 8 9 10 10 9 8 8 6 4 4 4 5 4 3 4 3
3 3 2 2 3 2 1 1 0 0 1 5 3 1 1 1 3 3 5 6 3 4 4 4 4 5 4 5 6 7 7 7 6 8 10 10 9 9 8 7 7 9 11 12 12 8 7 8 8 8 8 7 7 8 8 8 5 4 5 6 8 10 12 12 11 13 15 14 12 11 9 8 10 8 7 7 6 5 4 3 3 3 3 4 4 4
2 2 2 2 1 1 1 1 1 2 4 3 3 2 2 3 4 5 3 5 5 3 4 4 4 5 4 5 7 6 6 6 7 7 9 9 8 7 6 7 7 8 9 10 9 9 7 8 7 7 7 7 6 7 7 7 3 3 7 5 4 11 16 16 14 15 14 12 10 10 8 8 8 7 7 7 5 5 4 3 4 4 5 5 5 4
2 1 4 2 3 2 2 2 5 5 3 4 4 3 3 3 2 1 0 2 3 4 2 3 5 6 4 5 6 6 6 6 8 8 8 10 8 6 7 8 7 9 10 11 11 9 7 7 8 8 9 7 7 7 5 5 7 8 12 9 9 14 14 15 14 14 13 10 9 8 7 7 8 8 6 6 6 5 4 3 3 4 3 3 4 3
1 1 2 2 5 3 5 8 3 3 1 2 4 4 3 3 4 2 2 4 4 6 5 6 5 6 5 4 5 6 6 7 8 8 8 8 7 6 6 7 8 8 9 9 9 9 6 6 6 7 9 8 6 5 2 4 2 11 7 8 13 14 12 14 14 13 10 9 8 9 9 9 7 7 6 5 4 4 5 6 5 6 6 5 5 4
3 0 1 1 1 4 5 3 6 9 8 4 3 4 4 4 4 3 4 5 6 6 7 6 7 6 6 5 6 8 9 8 8 9 7 6 7 7 6 8 9 9 10 11 10 8 6 5 5 7 9 8 4 0 5 3 2 8 5 6 10 12 12 13 12 12 10 9 10 10 10 9 7 6 6 5 4 4 5 5 6 5 4 6 6 5
5 2 10 3 4 4 6 5 9 9 7 8 7 4 4 4 6 5 6 6 7 6 5 7 5 6 5 7 8 8 9 7 7 9 8 6 7 6 6 7 9 10 11 11 10 7 6 4 5 8 10 6 2 5 7 8 7 8 7 6 8 10 11 11 11 11 11 11 9 8 9 8 9 8 5 5 6 4 3 2 4 4 6 6 7 6
6 4 6 2 6 8 9 10 9 8 7 6 5 4 6 6 6 6 5 6 6 7 8 7 6 7 6 9 8 7 8 8 8 9 7 6 5 5 6 7 8 10 11 12 9 6 5 4 6 9 12 7 2 7 8 9 8 11 8 6 9 12 13 11 12 12 11 9 8 8 7 8 7 7 7 5 4 2 2 5 6 6 5 4 5 7
3 9 7 4 7 7 7 9 4 7 9 10 7 8 8 7 5 6 6 6 7 8 8 8 9 6 6 7 8 7 8 8 8 6 6 6 5 5 6 7 9 10 12 10 6 7 6 4 5 9 11 3 5 8 8 11 8 4 2 3 6 11 12 11 10 10 9 8 8 7 7 7 7 7 7 6 4 3 2 1 6 6 5 4 7 8
6 8 3 5 4 7 9 10 7 7 9 10 11 8 6 6 6 7 7 8 8 8 9 8 8 8 9 9 6 6 7 8 9 5 4 4 5 6 7 8 10 10 11 10 8 8 7 8 7 8 6 2 8 11 10 10 4 2 3 4 5 6 11 11 9 8 8 8 7 8 7 7 7 7 7 5 5 4 4 1 1 3 4 5 7 9
Wind_Direction
157 174 211 220 229 227 242 207 192 202 172 195 120 119 218 284 288 264 265 327 338 103 39 202 216 232 248 252 270 258 292 340 188 144 187 184 185 186 183 182 185 181 188 182 172 176 175 174 164 150 148 151 153 157 158 156 163 164 166 159 168 185 163 142 129 120 129 118 92 66 87 126 113 105 81 64 79 89 94 88 87 80 73 64 41 37
71 247 256 226 220 209 219 208 142 75 76 129 104 358 305 25 342 293 305 335 333 143 339 33 31 328 291 293 295 305 353 249 249 204 182 192 191 190 186 187 185 192 175 149 158 166 158 170 163 151 153 155 159 175 165 166 171 174 169 169 174 168 159 158 158 164 158 173 164 151 175 152 147 113 102 94 70 106 88 87 87 94 95 81 72 40
157 215 243 237 226 194 193 103 145 145 108 62 110 186 325 295 254 292 330 348 353 79 288 48 43 288 290 270 255 292 249 251 222 209 199 186 192 195 196 189 187 174 167 165 170 169 175 176 169 163 166 175 168 169 172 172 163 167 175 184 174 169 163 169 149 140 173 140 170 127 177 143 110 332 168 142 180 85 87 69 83 86 77 87 74 65
302 272 239 242 141 167 105 108 87 54 57 108 57 52 253 240 70 318 302 344 353 84 287 351 357 290 297 291 251 202 212 255 250 215 235 195 192 194 195 188 188 176 152 167 172 178 178 181 176 169 173 173 166 166 170 168 171 172 179 186 175 172 171 152 160 162 146 137 139 111 136 129 115 152 71 47 49 65 76 66 42 69 84 78 77 84
219 241 235 207 173 176 188 177 93 85 255 311 144 155 232 309 235 155 245 333 338 339 123 77 18 332 318 311 318 299 166 198 280 286 287 229 219 220 201 192 183 169 170 171 173 173 171 180 184 184 181 162 168 175 176 175 177 178 180 185 178 172 171 160 154 146 139 116 93 95 72 84 70 44 47 62 38 37 126 94 69 124 108 102 87 81
275 268 282 108 187 179 164 208 198 132 224 320 247 191 222 236 270 257 309 20 25 333 325 106 17 302 290 306 260 269 326 317 268 228 241 251 208 182 185 191 201 192 176 168 171 176 181 187 189 180 163 170 175 179 183 179 180 173 176 179 177 166 161 155 156 158 145 141 134 126 121 120 115 127 135 162 171 152 144 172 240 329 77 107 85 89
215 262 173 204 195 203 196 201 234 134 189 112 273 187 209 223 214 285 59 82 128 188 281 43 177 263 316 276 266 281 311 286 297 213 241 244 213 183 195 198 194 182 185 181 171 172 177 189 184 181 177 179 179 188 178 179 180 174 173 176 175 171 167 156 159 161 139 134 141 150 160 161 164 167 217 219 199 159 200 130 137 201 283 196 119 37
329 339 160 98 110 127 73 257 256 133 112 232 240 176 234 255 201 222 148 163 218 258 313 15 127 209 296 284 251 267 294 283 292 263 247 247 225 198 204 203 191 176 171 169 174 179 184 184 183 182 185 182 187 178 174 181 179 175 176 174 177 172 168 163 158 163 157 146 149 146 153 157 158 174 189 190 176 173 146 130 148 180 258 324 232 117
273 298 144 150 125 109 182 207 219 133 132 214 243 190 214 161 187 161 102 143 182 95 283 318 329 335 262 264 292 259 297 293 280 278 256 240 232 211 207 202 196 176 174 170 173 182 186 188 190 183 181 187 177 173 181 185 182 176 173 174 172 172 167 166 161 159 167 151 158 159 160 158 185 174 182 169 143 149 142 137 180 210 289 324 312 238
294 211 230 160 138 205 226 236 178 146 172 280 220 93 71 110 104 127 117 90 354 51 289 274 205 260 281 276 324 329 249 269 270 266 260 236 223 211 207 206 204 180 167 181 178 183 188 190 186 183 180 171 183 186 182 179 174 173 170 174 175 177 173 168 165 160 166 160 149 155 167 171 183 177 162 147 147 157 150 157 192 231 213 257 305 333
238 279 179 122 181 203 187 234 164 172 210 193 101 185 351 25 6 9 70 90 57 16 258 238 250 154 284 271 235 240 244 250 297 299 270 246 234 218 204 201 202 193 164 174 184 184 187 189 185 170 172 183 179 177 175 176 181 176 174 177 180 182 174 171 167 162 170 169 165 170 172 177 176 178 161 151 170 156 147 163 207 216 225 270 248 279
335 356 113 249 168 165 156 234 317 194 172 114 143 132 37 335 3 27 342 43 118 278 260 277 183 130 184 297 284 235 267 276 258 269 291 259 213 216 207 208 210 209 179 167 173 186 187 178 173 169 174 176 181 174 178 183 181 181 180 179 181 182 179 176 169 168 171 172 178 177 171 175 177 169 169 173 178 182 177 183 194 225 203 263 255 255
334 250 242 298 285 159 152 240 296 16 33 81 75 49 123 250 33 333 7 313 227 213 249 2 122 57 236 235 254 279 281 292 289 255 270 250 216 217 208 209 209 211 183 153 171 175 176 175 171 177 181 179 179 185 185 185 185 182 180 181 180 187 185 179 172 174 175 176 181 181 179 179 172 172 172 178 178 183 178 182 186 190 207 215 209 223
274 291 335 288 313 185 124 173 285 341 341 107 167 140 89 78 52 257 272 219 304 295 256 237 202 227 248 289 241 237 261 255 290 292 267 261 213 200 207 214 214 212 193 168 162 170 175 178 179 180 180 184 189 191 187 185 184 183 183 185 186 189 187 179 175 177 176 184 184 183 183 177 171 176 177 182 179 185 183 176 184 190 193 191 200 199
3 349 307 125 272 259 133 188 178 186 170 203 151 152 180 144 160 229 203 218 219 220 264 278 26 236 111 233 246 252 298 306 296 287 339 337 327 321 309 340 215 217 190 168 164 169 175 178 181 184 185 187 191 193 189 184 185 183 187 188 193 189 190 181 180 175 180 183 183 186 187 177 176 176 182 186 182 177 180 188 182 194 193 191 211 198
199 201 250 212 259 188 187 316 146 99 70 268 154 84 72 228 139 194 201 176 231 289 335 309 206 187 177 261 308 1 8 21 34 23 27 351 2 17 6 343 340 221 184 172 173 174 181 181 183 184 187 191 193 191 187 185 183 187 191 190 192 188 186 187 181 183 182 181 178 180 182 186 179 179 175 178 182 183 180 183 180 188 190 197 178 201
33 273 271 307 72 57 20 349 321 131 237 265 110 170 211 168 139 147 13 161 102 44 257 196 313 302 306 339 6 18 39 29 48 40 31 33 23 29 41 36 20 10 352 327 190 194 184 181 187 188 190 193 190 184 188 188 187 190 189 188 192 190 185 187 185 185 184 175 171 183 184 179 178 176 178 181 182 181 187 180 183 178 188 174 160 166
143 237 299 38 341 56 47 212 306 238 153 89 224 247 266 98 112 140 227 333 107 202 260 5 215 292 17 290 320 30 36 29 40 47 42 37 48 38 26 38 31 21 18 16 354 270 218 195 190 193 198 193 187 188 190 191 190 190 188 187 187 186 185 191 186 184 179 175 180 179 185 187 184 183 184 177 176 177 172 179 173 168 158 177 172 154
108 345 298 307 272 291 339 30 354 350 40 58 259 226 254 343 316 315 82 294 259 276 266 303 274 262 169 241 2 19 33 23 46 41 41 31 34 39 30 30 36 36 18 359 19 26 340 273 219 200 198 199 197 191 190 188 186 187 191 191 187 188 189 183 183 181 181 180 182 184 188 187 188 186 180 180 171 168 173 174 171 167 173 158 157 146
58 166 299 293 54 286 13 54 312 311 336 80 56 16 289 114 182 142 195 180 125 244 68 285 37 237 233 189 157 69 72 70 71 54 42 31 34 31 26 20 28 36 60 33 350 6 60 77 302 276 226 197 189 190 191 188 187 190 190 187 194 193 179 173 180 179 180 187 184 189 185 189 186 182 180 178 171 174 178 176 169 166 157 171 161 161
338 104 212 281 294 4 344 7 142 61 15 342 359 332 355 12 224 122 336 133 169 176 182 188 295 284 259 212 130 112 98 103 100 93 74 47 26 21 25 21 18 19 14 18 15 8 15 60 104 41 331 304 259 211 187 184 188 190 183 187 190 183 179 182 184 180 186 181 191 184 186 188 184 186 180 177 178 175 178 174 171 170 170 146 166 159
56 6 208 318 4 313 248 218 158 275 189 203 200 252 248 290 319 335 276 2 84 100 209 146 247 250 267 231 140 126 117 118 115 97 94 75 39 27 13 15 15 3 3 14 14 16 1 355 11 105 110 79 44 8 233 212 190 177 188 191 188 186 184 183 184 188 186 187 187 188 189 188 185 177 174 176 177 177 175 174 172 168 150 163 182 163
145 166 103 234 196 228 259 297 290 266 234 202 165 253 216 157 107 125 220 272 24 252 130 159 176 264 234 174 136 124 136 125 128 100 85 86 61 34 13 5 355 0 354 353 4 17 358 339 328 282 145 161 185 208 199 195 198 193 193 193 191 188 193 190 190 188 186 186 187 191 187 179 178 172 175 174 176 175 173 172 169 162 159 170 174 180
105 72 29 298 308 309 325 300 333 21 12 16 9 28 58 19 172 176 192 197 161 270 208 351 242 255 289 99 120 130 132 124 100 88 91 56 90 71 22 3 355 353 350 350 349 349 8 341 334 2 284 118 105 186 197 195 191 199 204 202 197 198 200 197 191 189 189 189 191 183 174 180 175 171 174 178 177 173 172 168 167 164 160 170 163 171
42 299 120 351 358 345 344 347 359 335 47 78 297 291 97 64 28 273 143 143 219 217 172 138 239 275 267 311 158 132 114 70 55 37 82 47 22 53 92 4 356 359 2 357 354 345 344 3 355 345 317 253 207 185 205 220 223 221 217 206 200 205 203 200 194 190 193 192 186 179 178 179 173 175 179 179 174 173 168 168 164 165 166 159 169 188
153 200 127 211 237 268 291 352 274 287 271 267 220 298 85 41 311 11 332 357 103 277 137 176 261 254 271 339 1 14 20 17 2 36 76 84 52 2 347 9 27 24 16 12 0 3 358 348 345 354 335 324 287 252 225 207 217 224 223 222 215 205 203 226 218 202 194 191 186 184 181 177 174 179 179 175 175 173 170 166 163 166 169 162 177 179
121 26 118 156 165 198 204 214 244 170 331 297 280 254 277 85 71 107 119 101 219 246 271 243 216 293 296 335 23 9 16 2 346 350 359 357 347 344 1 352 12 28 33 19 14 358 358 356 349 11 71 11 311 297 259 242 228 225 224 218 206 205 199 198 202 203 196 192 191 185 184 178 180 175 171 172 171 166 167 167 166 164 172 173 169 164
58 12 275 191 206 209 194 205 224 232 254 265 280 288 293 139 178 197 221 242 182 45 288 255 221 247 273 62 52 9 316 324 320 317 327 331 338 8 349 11 9 8 0 6 6 3 347 329 334 343 349 357 244 235 243 254 257 235 217 217 213 212 207 197 194 199 196 192 193 191 187 183 174 166 165 161 158 164 167 165 164 171 170 156 153 152
140 226 277 122 271 243 224 221 230 243 234 243 252 254 271 281 166 208 227 221 130 180 233 256 181 249 273 170 166 225 221 197 230 238 269 344 6 32 30 22 10 354 345 347 338 341 345 342 336 336 341 333 331 336 333 308 259 294 289 261 243 220 210 199 193 194 194 192 194 194 185 169 161 155 152 153 156 160 166 166 166 164 162 158 154 154
80 257 244 193 261 335 270 237 237 230 245 254 247 249 240 222 247 221 235 199 179 220 223 253 223 227 254 242 194 240 241 245 289 347 27 35 39 40 27 12 351 334 329 332 331 336 340 343 349 352 351 341 324 318 319 317 304 284 128 327 348 323 299 233 201 195 191 188 184 92 111 150 148 148 148 151 160 163 161 161 160 160 160 161 156 151
94 278 13 27 21 294 274 263 255 239 245 261 262 269 189 213 234 233 226 251 206 265 268 246 255 273 268 239 249 331 312 330 52 45 35 26 22 27 20 343 322 313 325 337 342 346 346 344 342 345 352 350 329 311 309 312 307 290 264 187 142 119 92 33 350 326 169 156 137 129 102 91 115 131 147 157 153 155 155 158 159 158 156 153 148 155
18 276 22 54 22 303 286 246 259 4 320 277 250 100 270 279 281 259 239 231 190 243 264 305 311 279 284 311 284 77 50 64 58 37 31 0 340 7 346 327 333 344 349 347 341 344 347 344 341 335 329 323 308 305 304 301 292 289 274 254 208 179 146 136 136 62 338 326 109 135 145 155 157 154 154 153 162 161 163 155 153 157 153 143 141 168
189 172 13 49 329 258 262 302 27 349 348 295 280 201 211 232 250 306 314 254 230 222 249 240 241 227 242 282 40 8 69 52 38 12 8 335 315 285 306 332 332 331 339 330 328 329 328 329 327 323 321 323 320 301 284 282 284 277 267 249 231 204 210 193 184 173 171 170 166 161 156 153 152 151 152 161 160 164 157 156 153 147 141 162 179 140
205 212 248 160 163 238 272 312 357 15 274 246 230 174 154 188 182 181 264 232 253 153 196 183 202 242 330 35 68 356 28 35 12 285 261 252 262 315 354 336 316 294 305 305 288 283 287 298 297 299 297 296 297 295 282 271 268 268 262 256 231 192 192 184 182 169 165 166 170 170 168 165 156 156 159 157 162 168 161 158 169 165 165 147 121 109
247 274 243 164 167 258 257 40 351 255 258 205 242 225 168 152 155 190 191 218 198 222 102 94 260 61 157 135 121 281 276 278 265 259 280 277 257 125 327 320 303 304 301 292 294 287 282 280 289 298 305 306 307 308 311 303 289 273 270 253 221 205 190 188 178 177 175 173 174 163 159 158 155 156 153 156 162 164 167 163 145 139 135 125 142 139
230 222 216 241 167 63 89 136 195 249 243 295 306 298 290 36 79 294 321 310 274 259 156 145 182 204 217 214 245 249 251 270 275 260 235 275 125 37 340 311 295 291 290 283 275 273 272 281 282 285 288 290 297 299 297 289 293 286 264 241 220 204 196 187 184 179 164 158 154 156 155 145 139 147 152 153 156 161 155 146 146 130 128 114 109 114
220 173 160 260 164 216 183 183 232 329 318 278 277 272 239 246 198 173 235 258 244 273 149 154 187 222 227 221 231 253 272 287 110 230 266 149 294 336 324 308 298 286 271 271 260 263 258 259 265 267 271 279 283 286 285 287 285 277 266 242 224 211 199 186 177 171 160 153 154 144 137 135 136 147 155 144 133 137 136 121 112 128 124 120 138 142
201 195 191 171 246 175 225 269 311 321 264 301 238 283 336 273 140 139 112 281 298 285 194 141 192 272 311 317 344 342 356 6 325 293 227 270 259 284 278 277 280 280 283 274 264 257 268 276 282 286 284 285 280 273 276 278 275 272 265 246 226 206 200 189 180 170 164 158 155 149 143 140 137 140 146 122 132 133 132 130 129 145 152 141 151 160
238 206 159 178 222 104 179 218 233 226 246 219 315 330 337 354 91 94 69 299 264 270 267 163 316 279 275 307 309 10 20 332 287 277 263 246 279 286 292 287 279 276 279 275 273 284 290 289 287 290 291 283 279 278 266 264 267 265 258 245 227 207 195 191 177 171 162 154 149 144 132 132 130 133 133 135 146 135 137 145 151 155 141 145 156 177
346 73 106 169 241 187 157 204 239 197 249 346 340 341 319 302 22 61 12 279 268 280 277 315 277 275 280 253 212 209 232 280 279 280 253 239 254 266 264 285 293 297 296 291 286 280 285 291 299 298 291 284 280 283 271 264 266 261 250 238 214 203 197 184 177 173 154 141 135 129 124 128 131 138 133 139 135 130 134 139 132 145 151 164 172 181
9 338 129 211 221 237 219 254 357 312 318 290 302 287 322 328 33 83 197 238 243 246 252 197 226 236 226 266 209 261 228 221 260 279 298 303 313 304 283 269 279 292 302 307 304 304 298 297 290 285 282 280 284 287 274 268 272 261 247 225 203 194 190 190 174 154 135 128 124 128 134 136 139 145 143 139 142 149 157 159 158 159 161 179 180 147
343 357 307 27 352 245 224 217 239 86 251 282 261 270 303 338 41 221 235 219 241 243 244 200 220 242 208 218 213 224 250 253 269 292 302 301 291 283 292 300 310 308 304 302 297 296 294 292 289 282 280 279 291 293 286 284 268 257 241 215 196 177 146 139 139 129 119 117 118 111 114 133 140 138 137 135 127 129 154 159 146 161 171 152 148 171
294 349 281 8 307 3 48 210 348 236 302 197 265 323 130 112 228 249 301 301 226 234 238 261 215 250 206 257 250 251 266 284 290 294 295 298 299 293 294 301 303 305 308 311 307 293 282 288 287 279 278 288 295 298 296 296 291 233 182 163 154 130 116 116 118 104 100 106 113 126 148 146 131 121 121 123 126 135 158 135 136 140 136 150 165 197
273 39 323 312 167 204 253 259 161 195 273 254 165 261 255 219 284 299 303 283 301 288 281 272 272 252 244 242 270 276 267 273 289 280 284 284 283 284 289 288 291 296 298 294 286 281 281 283 278 281 288 294 299 304 311 300 31 58 90 65 105 112 112 109 108 110 106 110 124 140 146 128 118 116 112 121 129 150 142 135 154 159 169 167 185 206
34 104 174 226 276 200 219 223 254 278 241 252 183 246 240 258 247 216 230 236 267 292 230 247 266 275 260 260 266 260 272 256 250 261 267 275 281 282 283 290 294 296 297 299 295 282 276 273 282 295 302 305 320 307 336 352 90 104 111 120 108 104 112 117 111 103 115 137 149 133 127 120 117 123 131 146 145 152 136 132 138 160 198 180 203 192
240 320 257 193 256 294 285 248 233 239 205 261 265 218 204 248 254 227 260 276 249 242 241 249 253 252 264 240 248 268 246 257 267 271 271 274 276 274 281 290 295 293 294 298 292 281 273 273 285 298 302 317 319 289 33 17 54 105 107 116 119 118 109 104 110 123 143 153 136 130 124 120 124 131 143 146 141 142 149 150 160 173 190 190 202 196
282 239 59 229 260 24 282 333 334 307 304 266 235 241 235 222 244 252 270 245 252 255 258 244 231 241 240 245 240 257 267 266 271 274 275 275 274 278 283 291 294 296 300 300 292 286 277 280 301 314 316 313 299 192 115 84 101 108 113 107 111 115 120 123 132 137 140 134 126 124 124 127 138 142 128 94 88 108 133 141 162 178 180 184 194 190
304 350 344 267 272 225 245 280 288 284 255 248 246 253 269 268 269 266 237 244 250 255 246 253 250 262 254 264 258 259 267 272 271 276 274 263 268 277 284 291 298 303 300 293 290 271 265 283 306 310 302 305 224 123 132 130 135 129 139 144 136 129 130 137 135 130 132 131 131 131 133 134 134 125 100 109 118 126 139 148 151 161 180 186 193 188
250 325 257 264 297 289 295 291 285 299 292 286 282 276 264 265 263 272 276 274 272 266 261 257 228 245 260 263 269 263 272 275 266 261 259 266 272 277 285 293 299 298 295 295 285 265 274 294 305 297 294 287 196 132 132 137 160 168 188 192 157 147 138 133 129 129 133 133 129 133 125 123 116 108 115 125 144 159 162 167 182 193 225 234 181 178
278 259 259 287 285 281 254 275 306 315 304 304 290 275 276 271 264 273 290 298 287 276 264 263 274 268 259 261 264 266 268 276 273 252 253 256 265 280 291 297 298 296 294 292 274 270 283 288 287 286 281 257 147 130 130 156 193 205 204 174 149 135 131 132 130 122 116 119 121 122 111 94 98 109 121 144 176 136 60 332 193 191 179 214 218 216
213 247 227 218 217 266 274 268 257 250 266 261 275 284 268 272 276 281 281 279 280 268 260 261 274 288 287 282 267 256 265 262 264 242 254 273 278 280 286 293 293 292 290 290 295 304 306 299 289 283 270 115 131 129 155 178 179 122 138 155 148 143 133 130 117 111 115 117 117 109 105 109 113 125 153 163 138 115 137 181 270 238 206 212 211 204